This is the latest recevied weather packets stored in our database for station/object DL8GAK-13. If no packets are shown the sender has not sent any weather packets the latest 10 day(s).
| Time | Temp. | Humidity | Pressure | Rain* | Wind** | Luminosity | Snow |
|---|---|---|---|---|---|---|---|
| 1777972605 | 17.78° C | 59% | 1016 hPa | - | - | - | - |
| 1777972004 | 17.78° C | 61% | 1016.1 hPa | - | - | - | - |
| 1777971403 | 17.78° C | 63% | 1016.2 hPa | - | - | - | - |
| 1777970802 | 17.22° C | 64% | 1016.2 hPa | - | - | - | - |
| 1777970201 | 17.22° C | 64% | 1016.3 hPa | - | - | - | - |
| 1777969600 | 16.67° C | 65% | 1016.4 hPa | - | - | - | - |
| 1777968999 | 16.67° C | 65% | 1016.5 hPa | - | - | - | - |
| 1777968398 | 16.67° C | 65% | 1016.6 hPa | - | - | - | - |
| 1777967797 | 16.11° C | 65% | 1016.6 hPa | - | - | - | - |
| 1777967196 | 16.11° C | 65% | 1016.6 hPa | - | - | - | - |
| 1777966595 | 15.56° C | 65% | 1016.6 hPa | - | - | - | - |
| 1777965994 | 15.56° C | 66% | 1016.9 hPa | - | - | - | - |
| 1777965393 | 15.56° C | 66% | 1016.9 hPa | - | - | - | - |
| 1777964792 | 15° C | 66% | 1016.9 hPa | - | - | - | - |
| 1777964191 | 15° C | 67% | 1016.9 hPa | - | - | - | - |
| 1777963590 | 14.44° C | 67% | 1017 hPa | - | - | - | - |
| 1777962989 | 13.89° C | 67% | 1017.2 hPa | - | - | - | - |
| 1777962388 | 13.89° C | 67% | 1017.2 hPa | - | - | - | - |
| 1777961787 | 13.33° C | 67% | 1017.3 hPa | - | - | - | - |
| 1777961186 | 13.33° C | 66% | 1017.4 hPa | - | - | - | - |
| 1777960585 | 12.78° C | 66% | 1017.4 hPa | - | - | - | - |
| 1777959984 | 12.78° C | 65% | 1017.3 hPa | - | - | - | - |
| 1777959383 | 12.78° C | 65% | 1017.3 hPa | - | - | - | - |
| 1777958783 | 12.22° C | 65% | 1017.3 hPa | - | - | - | - |
| 1777958182 | 12.22° C | 65% | 1017.2 hPa | - | - | - | - |
* Rain since midnight (hover to see other rain measurements)
** Current wind speed in m/s (hover to see current wind gust speed)